"Pseudo-MPEC" for P21VXgy

Created 2024 Jul 20 5:22:04 UT using Find_Orb

Click here for an explanation of pseudo-MPECs

 
 Astrometry: 
     P21VXgy* C2024 06 30.43451717 59 52.372+56 40 24.78   ~6ULq 21.49wXNEOCPF52
     P21VXgy  C2024 06 30.44767017 59 52.484+56 40 27.76   ~6ULq 21.68wXNEOCPF52
     P21VXgy  C2024 06 30.46084817 59 52.461+56 40 31.30   ~6ULq 21.28wXNEOCPF52

Station data:
(F52) Pan-STARRS 2, Haleakala  (N20.707382 W156.255910)  US/Hawaii.
   Observers J. Bulger, T. Dukes, T. Lowe, A. Schultz, M. Willman. Measurers
   K. Chambers, S. Chastel, T. de Boer, L. Denneau, J. Fairlamb, H.
   Flewelling, M. Huber, C.-C. Lin, E. Magnier, Y. Ramanjooloo, R. Wainscoat,
   R. Weryk. 1.8-m Ritchey-Chrétien + CCD.

Orbital elements:  P21VXgy
   Perihelion 2024 May 25.20140 +/- 31.9 TT =  4:50:01 (JD 2460455.70140)
Epoch 2024 Jun 30.0 TT = JDT 2460491.5   Earth MOID: 0.1919      AutoNEOCP
M  11.64626847 +/- 11               (J2000 ecliptic)
n   0.32532750 +/- 0.283            Peri.   24.15808 +/- 60
a   2.09373733 +/- 1.21             Node   225.67622 +/- 45
e   0.4387911 +/- 0.282             Incl.   31.56394 +/- 10
P   3.02959                H 20.22  G  0.15   U 11.9  SR
q 1.17502399 +/- 0.251    Q 3.01245066 +/- 57.7
From 3 observations 2024 June 30 (37.9 min); mean residual 0".22
Residuals in arcseconds: 
240630 F52  .19-  .11+    240630 F52  .38+  .22-    240630 F52  .19-  .11+    

Ephemerides (geocentric):
Date (UTC) HH   RA             Dec           delta  r     elong  mag " sig PA
---- --------  ------------   ------------  ------ ------ -----  --- --------
2024 07 20 05  18 07 55.993   +55 41 54.10  .66493 1.3085 100.1 21.8  39d  41
2024 07 20 06  18 07 57.566   +55 41 30.94  .66515 1.3087 100.1 21.8  39d  41
2024 07 20 07  18 07 59.141   +55 41 07.71  .66537 1.3088 100.1 21.8  40d  41
2024 07 20 08  18 08 00.719   +55 40 44.43  .66559 1.3090 100.1 21.8  40d  41
2024 07 20 09  18 08 02.299   +55 40 21.09  .66581 1.3092 100.1 21.8  40d  41
2024 07 20 10  18 08 03.882   +55 39 57.69  .66604 1.3094 100.1 21.8  40d  41
2024 07 20 11  18 08 05.468   +55 39 34.24  .66626 1.3096 100.2 21.8  40d  41
2024 07 20 12  18 08 07.057   +55 39 10.73  .66648 1.3097 100.2 21.8  40d  41
2024 07 20 13  18 08 08.648   +55 38 47.16  .66670 1.3099 100.2 21.8  40d  41
2024 07 20 14  18 08 10.242   +55 38 23.54  .66692 1.3101 100.2 21.8  40d  41
2024 07 20 15  18 08 11.838   +55 37 59.86  .66714 1.3103 100.2 21.8  40d  41
2024 07 20 16  18 08 13.438   +55 37 36.12  .66736 1.3105 100.2 21.8  40d  41
2024 07 20 17  18 08 15.039   +55 37 12.32  .66758 1.3107 100.2 21.8  40d  41
2024 07 20 18  18 08 16.644   +55 36 48.47  .66780 1.3108 100.2 21.8  40d  41
2024 07 20 19  18 08 18.251   +55 36 24.56  .66802 1.3110 100.2 21.8  40d  41
2024 07 20 20  18 08 19.861   +55 36 00.59  .66824 1.3112 100.2 21.8  40d  41
2024 07 20 21  18 08 21.473   +55 35 36.57  .66846 1.3114 100.2 21.8  40d  41
2024 07 20 22  18 08 23.088   +55 35 12.49  .66868 1.3116 100.2 21.8  40d  41
2024 07 20 23  18 08 24.706   +55 34 48.35  .66890 1.3117 100.2 21.8  40d  41
2024 07 21 00  18 08 26.326   +55 34 24.16  .66912 1.3119 100.2 21.8  40d  41
2024 07 21 01  18 08 27.949   +55 33 59.91  .66934 1.3121 100.2 21.8  40d  41
2024 07 21 02  18 08 29.575   +55 33 35.60  .66956 1.3123 100.2 21.8  40d  41
2024 07 21 03  18 08 31.203   +55 33 11.24  .66978 1.3125 100.2 21.8  40d  41
2024 07 21 04  18 08 32.834   +55 32 46.82  .67000 1.3127 100.2 21.8  40d  41
2024 07 21 05  18 08 34.468   +55 32 22.34  .67021 1.3128 100.2 21.8  40d  41
2024 07 21 06  18 08 36.104   +55 31 57.81  .67043 1.3130 100.2 21.8  40d  41
2024 07 21 07  18 08 37.743   +55 31 33.22  .67065 1.3132 100.2 21.8  40d  41
2024 07 21 08  18 08 39.385   +55 31 08.58  .67087 1.3134 100.3 21.8  40d  41
2024 07 21 09  18 08 41.029   +55 30 43.87  .67109 1.3136 100.3 21.8  40d  41
2024 07 21 10  18 08 42.676   +55 30 19.12  .67131 1.3137 100.3 21.8  40d  41
2024 07 21 11  18 08 44.326   +55 29 54.30  .67153 1.3139 100.3 21.8  40d  41
2024 07 21 12  18 08 45.978   +55 29 29.43  .67175 1.3141 100.3 21.8  40d  41
2024 07 21 13  18 08 47.633   +55 29 04.50  .67196 1.3143 100.3 21.8  40d  41
2024 07 21 14  18 08 49.291   +55 28 39.52  .67218 1.3145 100.3 21.8  40d  41
2024 07 21 15  18 08 50.951   +55 28 14.48  .67240 1.3147 100.3 21.8  40d  41
2024 07 21 16  18 08 52.614   +55 27 49.39  .67262 1.3148 100.3 21.8  40d  41
2024 07 21 17  18 08 54.279   +55 27 24.24  .67284 1.3150 100.3 21.8  40d  41
2024 07 21 18  18 08 55.948   +55 26 59.03  .67305 1.3152 100.3 21.8  40d  41
2024 07 21 19  18 08 57.619   +55 26 33.76  .67327 1.3154 100.3 21.8  41d  41
2024 07 21 20  18 08 59.292   +55 26 08.45  .67349 1.3156 100.3 21.8  41d  41
2024 07 21 21  18 09 00.969   +55 25 43.07  .67371 1.3158 100.3 21.8  41d  41
2024 07 21 22  18 09 02.648   +55 25 17.64  .67392 1.3160 100.3 21.8  41d  41
2024 07 21 23  18 09 04.329   +55 24 52.15  .67414 1.3161 100.3 21.8  41d  41
2024 07 22 00  18 09 06.013   +55 24 26.61  .67436 1.3163 100.3 21.8  41d  41
2024 07 22 01  18 09 07.700   +55 24 01.01  .67458 1.3165 100.3 21.8  41d  41
2024 07 22 02  18 09 09.390   +55 23 35.36  .67479 1.3167 100.3 21.8  41d  41
2024 07 22 03  18 09 11.082   +55 23 09.65  .67501 1.3169 100.3 21.8  41d  41
2024 07 22 04  18 09 12.777   +55 22 43.88  .67523 1.3171 100.4 21.8  41d  41